This demonstration page uses our WeatherBlox Daily Observations layout. Learn more.

Left ArrowRight Arrow

39.01783, -85.05884

Hourly Observations for October 31, 2015

Temp ( °F °C ) Dew Point ( °F °C ) Humidity (%) Winds ( mph kmh ) Pressure ( in mb ) Visibility ( mi km ) Precip ( " mm )
12:52 am 00:52 Mostly Cloudy 44 6.7 36 2.2 73 73 ESE 5 7 30.12 1020 10 16 N/A
1:52 am 01:52 Cloudy 44 6.7 37 2.8 76 76 ESE 3 6 30.13 1020 10 16 N/A
2:52 am 02:52 Mostly Cloudy 44 6.7 36 2.2 73 73 SE 9 15 30.10 1019 10 16 N/A
3:52 am 03:52 Cloudy 44 6.7 36 2.2 73 73 S 9 15 30.10 1019 10 16 N/A
4:52 am 04:52 Cloudy 44 6.7 35 1.7 71 71 ESE 7 11 30.09 1019 10 16 N/A
5:52 am 05:52 Cloudy 43 6.1 36 2.2 76 76 S 6 9 30.11 1020 10 16 N/A
6:52 am 06:52 Cloudy 43 6.1 36 2.2 76 76 E 10 17 30.07 1018 10 16 N/A
7:52 am 07:52 Cloudy 43 6.1 36 2.2 76 76 ESE 10 17 30.06 1018 10 16 N/A
8:52 am 08:52 Cloudy 44 6.7 36 2.2 73 73 SE 9 15 30.05 1018 10 16 N/A
10:52 am 10:52 Cloudy 47 8.3 37 2.8 69 69 SSE 9 15 30.07 1018 10 16 N/A
11:52 am 11:52 Cloudy 49 9.4 38 3.3 66 66 SE 10 17 30.01 1016 10 16 N/A
12:52 pm 12:52 Cloudy 53 11.7 40 4.4 61 61 SSE 10 17 30.00 1016 10 16 N/A
1:52 pm 13:52 Cloudy 54 12.2 41 5 62 62 SSE 10 17 29.97 1015 10 16 N/A
2:52 pm 14:52 Cloudy 56 13.3 42 5.6 60 60 S 14 22 29.92 1013 10 16 N/A
3:52 pm 15:52 Cloudy 58 14.4 43 6.1 58 58 S 10 17 29.90 1013 10 16 N/A
4:52 pm 16:52 Cloudy with Light Rain 57 13.9 45 7.2 64 64 SSE 14 22 29.88 1012 10 16 N/A
5:52 pm 17:52 Cloudy 57 13.9 46 7.8 67 67 SSE 15 24 29.85 1011 10 16 N/A
6:52 pm 18:52 Cloudy 58 14.4 46 7.8 65 65 S 15 24 29.83 1010 10 16 N/A
7:52 pm 19:52 Cloudy 58 14.4 46 7.8 65 65 SW 5 7 29.87 1012 10 16 N/A
8:52 pm 20:52 Cloudy 56 13.3 47 8.3 72 72 S 5 7 29.86 1011 10 16 N/A
9:52 pm 21:52 Cloudy with Light Rain 56 13.3 48 8.9 75 75 SSW 7 11 29.86 1011 5 8 N/A
10:52 pm 22:52 Cloudy with Rain 54 12.2 51 10.6 90 90 SW 8 13 29.88 1012 4 6 0.03 0.76

Powered by AerisWeather